When you browse on this site, cookies collect data to enhance your experience and personalize the content and advertising you see.
Visit our Privacy Policy to learn more. By continuing to use the site, you agree to this use of cookies and data.
  • In Austria
  • List of Countries
  • For 7 days
  • Water Temperature
  • Satellite Maps
  • Weather Map
  • News
  • Weather Widgets
  • user-avatar
    Login

    Hourly Weather Limanowa

    Today, 16 January, Wednesday

    Time Temperature Precipitation Wind Pressure Humidity
    00:00 -2°C° 0.8 mm 6 mps 713 mmHg 89%
    01:00 0°C° 0 mm 3 mps 713 mmHg 91%
    02:00 0°C° 0.8 mm 4 mps 713 mmHg 91%
    03:00 0°C° 0.8 mm 5 mps 714 mmHg 90%
    04:00 -1°C° 0.8 mm 7 mps 714 mmHg 90%
    05:00 -1°C° 0.9 mm 6 mps 714 mmHg 91%
    06:00 -1°C° 0.9 mm 6 mps 715 mmHg 92%
    07:00 0°C° 0.9 mm 5 mps 715 mmHg 93%
    08:00 0°C° 0.6 mm 5 mps 715 mmHg 94%
    09:00 0°C° 0.6 mm 5 mps 716 mmHg 95%
    10:00 0°C° 0.6 mm 5 mps 716 mmHg 96%
    11:00 0°C° 0.2 mm 4 mps 716 mmHg 97%
    12:00 0°C° 0.2 mm 4 mps 717 mmHg 97%
    13:00 0°C° 0.2 mm 4 mps 717 mmHg 98%
    14:00 +1°C° 0 mm 3 mps 717 mmHg 97%
    15:00 +1°C° 0 mm 3 mps 717 mmHg 96%
    16:00 +2°C° 0 mm 2 mps 718 mmHg 95%
    17:00 +1°C° 0 mm 2 mps 718 mmHg 93%
    18:00 +1°C° 0 mm 2 mps 718 mmHg 92%
    19:00 -1°C° 0 mm 2 mps 718 mmHg 90%
    20:00 -1°C° 0 mm 2 mps 718 mmHg 89%
    21:00 -1°C° 0 mm 2 mps 718 mmHg 89%
    22:00 -1°C° 0 mm 2 mps 718 mmHg 88%
    23:00 -1°C° 0 mm 2 mps 717 mmHg 87%

    Tomorrow, 17 January, Thursday

    Time Temperature Precipitation Wind Pressure Humidity
    00:00 -1°C° 0 mm 2 mps 717 mmHg 86%
    01:00 -2°C° 0 mm 2 mps 717 mmHg 85%
    02:00 -2°C° 0 mm 3 mps 717 mmHg 84%
    03:00 -1°C° 0 mm 3 mps 716 mmHg 82%
    04:00 -1°C° 0 mm 3 mps 716 mmHg 81%
    05:00 -1°C° 0 mm 3 mps 716 mmHg 79%
    06:00 -1°C° 0 mm 3 mps 716 mmHg 77%
    07:00 -1°C° 0 mm 3 mps 716 mmHg 75%
    08:00 0°C° 0 mm 3 mps 716 mmHg 76%
    09:00 0°C° 0 mm 3 mps 716 mmHg 76%
    10:00 +1°C° 0 mm 3 mps 716 mmHg 77%
    11:00 +2°C° 0 mm 3 mps 716 mmHg 82%
    12:00 +2°C° 0 mm 3 mps 716 mmHg 87%
    13:00 +3°C° 0 mm 2 mps 716 mmHg 91%
    14:00 +3°C° 0 mm 2 mps 716 mmHg 90%
    15:00 +2°C° 0 mm 2 mps 715 mmHg 89%
    16:00 +2°C° 0 mm 2 mps 715 mmHg 87%
    17:00 +1°C° 0 mm 2 mps 715 mmHg 87%
    18:00 0°C° 0 mm 3 mps 715 mmHg 86%
    19:00 0°C° 0 mm 3 mps 715 mmHg 86%
    20:00 0°C° 0 mm 3 mps 715 mmHg 85%
    21:00 +1°C° 0 mm 3 mps 715 mmHg 85%
    22:00 +1°C° 0 mm 3 mps 715 mmHg 85%
    23:00 0°C° 0 mm 4 mps 715 mmHg 84%

    Day after tomorrow, 18 January, Friday

    Time Temperature Precipitation Wind Pressure Humidity
    00:00 0°C° 0 mm 4 mps 715 mmHg 84%
    01:00 0°C° 0 mm 4 mps 715 mmHg 84%
    02:00 -1°C° 0.1 mm 4 mps 716 mmHg 84%
    03:00 -1°C° 0.1 mm 4 mps 716 mmHg 84%
    04:00 -1°C° 0.1 mm 4 mps 716 mmHg 85%
    05:00 -2°C° 0 mm 4 mps 717 mmHg 84%
    06:00 -3°C° 0 mm 4 mps 717 mmHg 83%
    07:00 -4°C° 0 mm 4 mps 717 mmHg 81%
    08:00 -5°C° 0 mm 5 mps 718 mmHg 79%
    09:00 -5°C° 0 mm 5 mps 719 mmHg 77%
    10:00 -4°C° 0 mm 6 mps 719 mmHg 75%
    11:00 -4°C° 0 mm 6 mps 720 mmHg 75%
    12:00 -4°C° 0 mm 6 mps 720 mmHg 75%
    13:00 -3°C° 0 mm 6 mps 721 mmHg 74%
    14:00 -4°C° 0 mm 5 mps 721 mmHg 77%
    15:00 -4°C° 0 mm 4 mps 722 mmHg 80%
    16:00 -4°C° 0 mm 3 mps 722 mmHg 83%
    17:00 -5°C° 0 mm 3 mps 723 mmHg 84%
    18:00 -5°C° 0 mm 2 mps 724 mmHg 86%
    19:00 -5°C° 0 mm 2 mps 724 mmHg 87%
    20:00 -6°C° 0 mm 2 mps 724 mmHg 87%
    21:00 -6°C° 0 mm 2 mps 725 mmHg 88%
    22:00 -6°C° 0 mm 2 mps 725 mmHg 88%
    23:00 -6°C° 0 mm 1 mps 725 mmHg 88%

    19 January, Saturday

    Time Temperature Precipitation Wind Pressure Humidity
    00:00 -6°C° 0 mm 1 mps 725 mmHg 87%
    01:00 -6°C° 0 mm 1 mps 725 mmHg 87%
    02:00 -6°C° 0 mm 1 mps 725 mmHg 86%
    03:00 -6°C° 0 mm 1 mps 725 mmHg 86%
    04:00 -6°C° 0 mm 1 mps 725 mmHg 85%
    05:00 -6°C° 0 mm 1 mps 725 mmHg 85%
    06:00 -6°C° 0 mm 1 mps 725 mmHg 84%
    07:00 -7°C° 0 mm 1 mps 725 mmHg 84%
    08:00 -6°C° 0 mm 1 mps 725 mmHg 82%
    09:00 -4°C° 0 mm 1 mps 725 mmHg 80%
    10:00 -3°C° 0 mm 1 mps 725 mmHg 79%
    11:00 -2°C° 0 mm 1 mps 725 mmHg 76%
    12:00 -2°C° 0 mm 0 mps 725 mmHg 74%
    13:00 -1°C° 0 mm 0 mps 725 mmHg 72%
    14:00 -2°C° 0 mm 0 mps 724 mmHg 76%
    15:00 -3°C° 0 mm 0 mps 724 mmHg 81%
    16:00 -3°C° 0 mm 1 mps 723 mmHg 85%
    17:00 -3°C° 0 mm 1 mps 723 mmHg 86%
    18:00 -4°C° 0 mm 0 mps 723 mmHg 87%
    19:00 -5°C° 0 mm 0 mps 723 mmHg 89%
    20:00 -5°C° 0 mm 0 mps 723 mmHg 89%
    21:00 -4°C° 0 mm 0 mps 723 mmHg 89%
    22:00 -4°C° 0 mm 0 mps 723 mmHg 89%
    23:00 -4°C° 0 mm 0 mps 723 mmHg 89%

    20 January, Sunday

    Time Temperature Precipitation Wind Pressure Humidity
    00:00 -5°C° 0 mm 0 mps 723 mmHg 89%
    01:00 -5°C° 0 mm 0 mps 723 mmHg 89%
    02:00 -5°C° 0 mm 0 mps 722 mmHg 90%
    03:00 -5°C° 0 mm 0 mps 722 mmHg 90%
    04:00 -6°C° 0 mm 0 mps 722 mmHg 91%
    05:00 -6°C° 0 mm 0 mps 722 mmHg 92%
    06:00 -6°C° 0 mm 0 mps 722 mmHg 92%
    07:00 -7°C° 0 mm 0 mps 722 mmHg 93%
    08:00 -6°C° 0 mm 0 mps 722 mmHg 92%
    09:00 -5°C° 0 mm 0 mps 723 mmHg 90%
    10:00 -4°C° 0 mm 0 mps 723 mmHg 89%
    11:00 -2°C° 0 mm 1 mps 723 mmHg 86%
    12:00 -2°C° 0 mm 1 mps 723 mmHg 84%
    13:00 -1°C° 0 mm 1 mps 723 mmHg 81%
    14:00 -2°C° 0 mm 1 mps 723 mmHg 84%
    15:00 -3°C° 0 mm 1 mps 723 mmHg 86%
    16:00 -4°C° 0 mm 1 mps 723 mmHg 88%
    17:00 -4°C° 0 mm 1 mps 723 mmHg 88%
    18:00 -6°C° 0 mm 1 mps 724 mmHg 88%
    19:00 -6°C° 0 mm 1 mps 724 mmHg 88%
    20:00 -6°C° 0 mm 1 mps 725 mmHg 87%
    21:00 -8°C° 0 mm 2 mps 725 mmHg 87%
    22:00 -8°C° 0 mm 2 mps 725 mmHg 87%
    23:00 -7°C° 0.1 mm 2 mps 726 mmHg 87%

    21 January, Monday

    Time Temperature Precipitation Wind Pressure Humidity
    00:00 -7°C° 0.1 mm 2 mps 726 mmHg 88%
    01:00 -6°C° 0.1 mm 2 mps 727 mmHg 89%
    02:00 -6°C° 0.1 mm 2 mps 727 mmHg 90%
    03:00 -6°C° 0.1 mm 2 mps 727 mmHg 92%
    04:00 -6°C° 0.1 mm 2 mps 727 mmHg 94%
    05:00 -4°C° 0.1 mm 1 mps 728 mmHg 94%
    06:00 -4°C° 0.1 mm 1 mps 728 mmHg 95%
    07:00 -4°C° 0.1 mm 1 mps 729 mmHg 96%
    08:00 -4°C° 0 mm 1 mps 729 mmHg 94%
    09:00 -4°C° 0 mm 1 mps 730 mmHg 91%
    10:00 -3°C° 0 mm 1 mps 730 mmHg 88%
    11:00 -3°C° 0 mm 1 mps 730 mmHg 85%
    12:00 -3°C° 0 mm 1 mps 731 mmHg 82%
    13:00 -2°C° 0 mm 1 mps 731 mmHg 78%
    14:00 -3°C° 0 mm 1 mps 731 mmHg 81%
    15:00 -4°C° 0 mm 1 mps 731 mmHg 83%
    16:00 -6°C° 0 mm 1 mps 731 mmHg 85%
    17:00 -7°C° 0 mm 1 mps 731 mmHg 86%
    18:00 -7°C° 0 mm 1 mps 731 mmHg 87%
    19:00 -8°C° 0 mm 1 mps 731 mmHg 88%
    20:00 -8°C° 0 mm 1 mps 732 mmHg 88%
    21:00 -8°C° 0 mm 1 mps 732 mmHg 89%
    22:00 -9°C° 0 mm 1 mps 732 mmHg 89%
    23:00 -9°C° 0 mm 1 mps 731 mmHg 88%
    Show more